Find CuPID

NORAD ID: 49264 Int'l Des: 2021-088 Owner: BU Country: US operational
LEOCIRCULARRETROGRADESSO

現在のビュー

3D地球を読み込み中...

About CuPID

CuPID (NORAD 49264) is a satellite launched Sep 27, 2021 by BU of US. It operates in LEO, CIRCULAR, RETROGRADE, SSO orbit with a mass of 10.00 kg.

次回通過

Passes for default location (London). Set your location on the main map for personalized predictions.

高度履歴

Loading altitude history...

軌道要素

1 49264U 21088E 26194.08993029 .00004665 00000-0 18203-3 0 9994
2 49264 97.3858 254.9858 0010960 339.9408 20.1399 15.26359642264133
Epoch: Jul 13, 2026 • Age: 26 hours

現在のステータス

高度 502.6 km
遠地点 / 近地点 N/A
速度 7.62 km/s
衛星直下点 81.42°N, 150.23°W
打ち上げ日 Sep 27, 2021
運用期間 4.7 years
タイプ other

技術仕様

分類 Payload
質量 10.00 kg
乾燥質量 10.00 kg
総質量 10.00 kg
長さ 0.30 m
直径 0.20 m
スパン 0.30 m
形状 Box
製造者 BU
バスタイプ Cubesat 6U
フェーズステータス In Orbit
所有者/国 BU/US

Most Searched